www.pogodaiklimat.ru

Архив погоды в Минске (город Минск, Беларусь)

Время
(UTC), дата
03 20.10
06 20.10
09 20.10
12 20.10
15 20.10
18 20.10
21 20.10
00 21.10
03 21.10
06 21.10
09 21.10
12 21.10
15 21.10
18 21.10
21 21.10
00 22.10
03 22.10
06 22.10
09 22.10
12 22.10
15 22.10
18 22.10
21 22.10
00 23.10
03 23.10
06 23.10
09 23.10
12 23.10
15 23.10
18 23.10
21 23.10
00 24.10
03 24.10
06 24.10
09 24.10
12 24.10
15 24.10
18 24.10
21 24.10
00 25.10
03 25.10
06 25.10
09 25.10
12 25.10
15 25.10
18 25.10
21 25.10
00 26.10
03 26.10
06 26.10
09 26.10
12 26.10
15 26.10
18 26.10
21 26.10
Ветер
(напр.,м/с)
Видим. Явления Облачность Т
(С)
Тd
(С)
f
(%)
Тe
(С)
Тes
(С)
Комфортность P
(гПа)
Po
(гПа)
Тmin
(С)
Tmax
(С)
R
(мм)
R24
(мм)
S
(см)
Ю 3 20 км в посл. час ливневой дождь 10/10 500 м
[Cb cap]
+5.0 +0.9 75 +2 +2 по сезону 1018.6 990.0
Ю 3 10 км слаб. дождь {ливн. дождь} 10/10 360 м
[Frnb Ns]
+5.8 +3.5 85 +3 +3 по сезону 1015.5 987.1 -1.0 0.0
Ю 4 5000 м слаб. дождь 10/10 240 м
[Frnb Ns]
+7.1 +6.2 94 +3 +3 по сезону 1012.5 984.3
Ю 4
{10}
10 км в посл. час дождь 10/10 180 м
[Frnb Ns]
+8.7 +7.6 93 +5 +5 по сезону 1009.5 981.6
Ю 5 10 км 10/10 270 м
[Frnb Ns]
+10.1 +8.5 90 +7 +7 по сезону 1007.7 979.9
Ю 4
{11}
10 км 8/6 400 м
[Sc As op]
+11.1 +9.4 89 +9 +9 тепло 1006.0 978.4 +11.2 2
Ю 4
{11}
10 км в посл. час дождь 9/6 1080 м
[Sc Ac trans]
+11.9 +9.7 86 +10 +10 тепло 1004.4 976.9
Ю 4
{10}
10 км слаб. ливневой дождь 10/6 1170 м
[Cb cap As op]
+11.4 +9.5 88 +9 +9 тепло 1003.0 975.5
ЮЗ 4
{11}
10 км {ливн. дождь} 6/0
[Ac trans]
+11.0 +7.2 77 +9 +9 тепло 1002.0 974.5
ЮЗ 4 25 км {ливн. дождь} 9/0
[Ac cuf Cc]
+10.4 +6.6 77 +8 +8 тепло 1000.8 973.3 +10.1 0.5
Ю 4 30 км 10/0
[Ac trans Cs]
+13.1 +7.4 68 +11 +13 тепло 999.5 972.3
Ю 6-10
{11}
30 км 10/0
[Ac As]
+14.2 +7.5 64 +12 +13 тепло 997.1 970.0
Ю 4
{10}
30 км в посл. час дождь 10/0
[Ac As]
+14.2 +8.1 67 +13 +13 тепло 994.8 967.8
ЮЗ 5-10
{14}
25 км {дождь} 10/10 1260 м
[Sc]
+14.5 +8.2 66 +13 +13 тепло 994.1 967.1 +15.0 0.0
ЮЗ 5-10
{13}
15 км 8/8 1170 м
[Sc]
+13.7 +7.2 65 +12 +12 тепло 994.4 967.3
ЮЗ 5-10
{11}
20 км {ливн. дождь} 4/0
[Ac trans]
+11.0 +5.0 66 +8 +8 тепло 997.1 969.7
ЮЗ 7-11
{13}
20 км 8/0
[Ac trans]
+10.4 +3.9 64 +7 +7 тепло 996.7 969.2
ЮЗ 7-14
{19}
30 км {ливн. дождь} 4/4 750 м
[Sc]
+7.4 +3.5 76 +3 +3 по сезону 1000.0 972.2 +6.7 1
ЮЗ 5-10
{13}
30 км 9/9 1050 м
[Sc]
+8.5 +1.6 62 +5 +5 по сезону 1002.6 974.8
ЮЗ 5-11
{13}
30 км {ливн. дождь} 10/5 1410 м
[Sc Cs]
+8.5 +0.6 58 +5 +6 по сезону 1004.2 976.3
ЮЗ 5
{12}
25 км 10/10 1440 м
[Sc]
+8.4 +0.7 58 +5 +5 по сезону 1004.6 976.7
ЮЗ 5-10
{11}
20 км 10/10 1260 м
[Sc]
+8.0 +1.2 62 +5 +5 по сезону 1004.3 976.4 +8.9 0.0
ЮЗ 6-10
{14}
20 км {ливн. дождь} 10/8 930 м
[Sc Ac und]
+6.7 +2.6 75 +2 +2 по сезону 1003.5 975.5
ЮЗ 5
{12}
20 км {ливн. дождь} 10/10 700 м
[Sc]
+6.8 +2.6 75 +3 +3 по сезону 1002.9 974.9
ЮЗ 3
{10}
25 км {дождь} 8/8 630 м
[Sc]
+6.0 +1.9 75 +3 +3 по сезону 1004.6 976.5
З 3 20 км в посл. час ливневой дождь 10/10 720 м
[Cb cap]
+5.2 +1.6 78 +2 +2 по сезону 1006.8 978.5 +4.9 0.4
ЮЗ 4
{10}
20 км {ливн. дождь} 9/9 800 м
[Sc]
+5.8 +2.1 77 +2 +2 по сезону 1009.8 981.5
ЮЗ 5
{10}
25 км в посл. час дождь {ливн. дождь} 8/8 660 м
[Sc]
+6.9 +2.8 75 +3 +3 по сезону 1011.3 983.1
З 3
{10}
25 км 8/8 840 м
[Sc]
+7.5 +2.4 70 +5 +5 по сезону 1012.8 984.6
З 2 15 км в посл. час ливневой дождь 8/8 660 м
[Cb cap]
+5.5 +4.0 90 +3 +3 по сезону 1015.1 986.7 +8.3 0.3
З 4 15 км 9/9 400 м
[Sc]
+5.2 +2.9 85 +1 +1 по сезону 1017.3 988.8
З 3 15 км 6/6 840 м
[Sc]
+3.9 +1.2 83 0 0 по сезону 1019.8 991.0
СЗ 3 10 км слаб. дождь 10/10 240 м
[Frnb Ns]
+3.2 +2.1 92 -1 -1 по сезону 1022.0 993.1
СЗ 4 15 км {дождь} 9/9 720 м
[Sc]
+2.8 +0.8 87 -2 -2 прохладно 1024.6 995.6 +2.8 0.7
СЗ 4
{10}
15 км {дождь} 8/8 630 м
[Sc]
+3.3 -0.6 76 -1 -1 прохладно 1027.4 998.4
СЗ 4
{10}
15 км {дождь} 8/8 1050 м
[Sc]
+5.1 -2.5 58 +2 +2 прохладно 1028.8 999.9
СЗ 2 15 км 6/0
[Ac trans Ci fib]
+3.7 -1.6 68 +1 +1 прохладно 1030.1 1001.0
З 1 15 км 6/0
[Ac trans]
+1.2 -0.9 86 -1 -1 прохладно 1031.2 1001.8 +5.9 0.0
СЗ 1 30 км н/о -1.6 -2.2 96 -4 -4 холодно 1032.2 1002.5
штиль 0 10 км ясно -2.9 -3.4 96 -4 -4 холодно 1032.8 1002.9
штиль 0 8000 м дымка ясно -4.1 -4.8 95 -5 -5 холодно 1032.8 1002.8
штиль 0 15 км 4/0
[Ci fib]
-2.8 -3.3 96 -4 -4 прохладно 1032.6 1002.8 -4.7
Ю 3 20 км ясно +5.9 +1.2 72 +3 +5 по сезону 1031.5 1002.6
Ю 5 20 км 3/0
[Ac trans]
+8.3 +0.7 59 +5 +6 по сезону 1029.8 1001.2
Ю 3 15 км ясно +6.1 +0.1 65 +3 +3 по сезону 1028.1 999.3
Ю 3 15 км ясно +4.1 +0.2 76 +1 +1 по сезону 1027.2 998.3 +8.5
Ю 3 15 км 8/0
[Ci fib]
+3.1 -0.5 77 -1 -1 прохладно 1026.5 997.5
Ю 4 15 км 4/0
[Ci fib]
+2.7 -1.1 76 -2 -2 прохладно 1025.2 996.2
Ю 2 15 км ясно +0.1 -1.9 86 -4 -4 прохладно 1023.8 994.5
Ю 3 20 км 9/0
[Ci]
+0.7 -1.6 85 -4 -4 прохладно 1022.9 993.7 -0.9
Ю 5 30 км 8/0
[Cs]
+5.3 -0.3 67 +1 +2 по сезону 1021.6 992.9
Ю 4 30 км 8/0
[Cs]
+9.2 +0.9 56 +7 +8 по сезону 1019.9 991.7
Ю 4 15 км 9/0
[Ac trans Ci fib]
+7.8 +1.0 62 +5 +5 по сезону 1019.9 991.5
ЮЗ 3 15 км 9/0
[Ci fib]
+6.8 +1.1 67 +4 +4 по сезону 1019.7 991.2 +9.7
Ю 2 15 км 9/0
[As trans]
+5.1 +1.3 76 +3 +3 по сезону 1019.1 990.5
Местоположение метеостанции Минск (город Минск, Беларусь): широта 53.96 долгота 27.70 высота над уровнем моря 231 м.
В архиве по умолчанию представлена погода в Минске за последнюю неделю. Архивные данные за месяц целиком и за предыдущие месяцы, начиная с января 2011 года, Вы можете получить, выбрав интересующий диапазон дат из раскрывающегося списка и нажав кнопку "Найти!".
*Определитесь, кто Вы:
Внимание! Время в таблицах - всемирное. Для получения местного времени необходимо прибавить поправку, которая равна 3 ч.
Смотрите также архив погоды в соседних городах и на ближайших метеорологических станциях:
Партнеры нашего сайта:      
Пояснения к столбцам:
  • Ветер - указаны скорость ветра в м/с - средняя за 10 мин, порывы в срок и между сроками (в фигурных скобках) и направление, откуда дует ветер: С - северный,
  • СВ - северо-восточный, В - восточный, ЮВ - юго-восточный, Ю - южный, ЮЗ - юго-западный, З - западный, СЗ - северо-западный.
  • Видимость - горизонтальная дальность видимости в метрах или километрах. При видимости от 1 до 10 км при отсутствии осадков обычно наблюдается дымка, при ухудшении видимости до 1 км и менее - туман. В сухую погоду видимость может ухудшаться дымом, пылью или мглою.
  • Явления - указаны атмосферные явления, наблюдавшиеся в срок или в последний час перед сроком; фигурными скобками обозначены явления, наблюдавшиеся между сроками (за 1-3 часа до срока); квадратными скобками обозначены град или гололедные отложения с указанием их диаметра в мм.
  • Облачность - указаны через наклонную черту общая и нижняя облачность в баллах и высота нижней границы облаков в метрах; квадратными скобками обозначены формы облаков: Ci - перистые, Cs - перисто-слоистые, Cc - перисто-кучевые, Ac - высококучевые, As - высокослоистые, Sc - слоисто-кучевые, Ns - слоисто-дождевые, Cu - кучевые, Cb - кучево-дождевые. Подробнее классификацию облаков см. в Атласе облаков (PDF).
  • T - Температура воздуха - температура, измеренная на высоте 2 м над землей.
  • Td - Температура точки росы - температура, при понижении до которой содержащийся в воздухе водяной пар достигнет насыщения.
  • f - Относительная влажность воздуха - влажноcть воздуха, измеренная на высоте 2 м над землей.
  • Te - Эффективная температура - температура, которую ощущает одетый по сезону человек в тени. Характеристика душности погоды. При расчете учитывается влияние влажности воздуха и скорости ветра на теплоощущения человека.
  • Tes - Эффективная температура на солнце - температура, которую ощущает человек, с поправкой на солнечный нагрев. Характеристика знойности погоды. Зависит от высоты солнца над горизонтом, облачности и скорости ветра. Ночью, в пасмурную погоду, а также при ветре 12 м/с и более поправка равна нулю.
  • P - Атмосферное давление - приведенное к уровню моря атмосферное давление.
  • Po - Атмосферное давление - измеренное на уровне метеостанции атмосферное давление.
  • Tmin - Минимальная температура - минимум температуры воздуха на высоте 2 м над землей.
  • Tmax - Максимальная температура - максимум температуры воздуха на высоте 2 м над землей.
  • R - Количество осадков - Количество выпавших осадков за период времени, мм. При наведении курсора мыши на число - период времени, за который выпало указанное количество осадков.
  • R24 - Количество осадков - Количество выпавших осадков за 24 часа, мм.
  • S - Снежный покров - Высота снежного покрова, см. При наведении курсора мыши на число - состояние снежного покрова и степень покрытия местности в баллах.